[Iaude] MPEC N12: 2024 MX1 [a=2.17,e=0.46,i=11.7,H=21.6]
    mpec at cfa.harvard.edu 
    mpec at cfa.harvard.edu
       
    Tue Jul  2 07:37:57 EDT 2024
    
    
  
M.P.E.C. 2024-N12                                  Issued 2024 July 2, 11:36 UT
     The Minor Planet Electronic Circulars contain information on unusual
         minor planets, routine data on comets and natural satellites,
         and occasional editorial announcements.  They are published
    on behalf of Division F of the International Astronomical Union by the
          Minor Planet Center, Smithsonian Astrophysical Observatory,
                          Cambridge, MA 02138, U.S.A.
			  
             Prepared using the Tamkin Foundation Computer Network
                              MPC at CFA.HARVARD.EDU
            URL https://www.minorplanetcenter.net/    ISSN 1523-6714
                                    2024 MX1                                    
Observations:
     K24M01X* C2024 06 29.46591420 43 34.657-01 25 00.51         19.84wXEN012F51
     K24M01X  C2024 06 29.47649720 43 37.383-01 25 29.01         19.90wXEN012F51
     K24M01X  C2024 06 29.48720920 43 40.135-01 25 57.83         19.79wXEN012F51
     K24M01X  C2024 06 30.07856220 46 25.29 -01 52 06.2                WEN012X09
     K24M01X  C2024 06 30.08556120 46 27.19 -01 52 26.2                WEN012X09
     K24M01X  C2024 06 30.09255820 46 29.08 -01 52 45.3                WEN012X09
     K24M01X KB2024 06 30.30497 20 47 26.194-02 03 25.96         19.0 RZEN012H36
     K24M01X KB2024 06 30.31067 20 47 27.634-02 03 42.30         19.3 RZEN012H36
     K24M01X KC2024 06 30.31195420 47 27.69 -02 03 45.9          20.5 GVEN012H21
     K24M01X KC2024 06 30.31772920 47 29.23 -02 04 01.7          19.1 GVEN012H21
     K24M01X KC2024 06 30.32052520 47 29.96 -02 04 10.2          19.6 GVEN012H21
     K24M01X KC2024 06 30.32313520 47 30.63 -02 04 17.3          19.5 GVEN012H21
     K24M01X KC2024 06 30.50823 20 48 23.17 -02 11 53.3          19.3 VqEN012E94
     K24M01X KC2024 06 30.52167 20 48 26.71 -02 12 31.6          19.1 VqEN012E94
     K24M01X KC2024 06 30.53473 20 48 30.20 -02 13 07.4          19.4 VqEN012E94
     K24M01X 0B2024 06 30.89731 20 50 12.564-02 30 18.40         19.9 VZEN012M49
     K24M01X 0B2024 06 30.90358 20 50 14.249-02 30 36.18         19.4 VZEN012M49
     K24M01X KB2024 06 30.90722 20 50 14.44 -02 31 39.3          19.3 GXEN012M45
     K24M01X KC2024 06 30.90846820 50 15.06 -02 31 42.8          19.9 GVEN012L01
     K24M01X 0B2024 06 30.90981 20 50 15.922-02 30 54.00         20.1 VZEN012M49
     K24M01X KC2024 06 30.91015620 50 15.53 -02 31 47.4          19.4 GVEN012L01
     K24M01X KB2024 06 30.91111 20 50 15.49 -02 31 51.0                XEN012M45
     K24M01X IC2024 06 30.91184320 50 16.01 -02 31 52.3          19.6 GVEN012L01
     K24M01X KC2024 06 30.91353220 50 16.44 -02 31 56.1          19.8 GVEN012L01
     K24M01X KC2024 06 30.91521820 50 16.90 -02 32 01.2          19.4 GVEN012L01
     K24M01X KC2024 06 30.95533020 50 27.638-02 33 52.49         17.7 GVEN012L02
     K24M01X KC2024 06 30.95952520 50 28.610-02 34 04.01               VEN012L02
     K24M01X KC2024 06 30.96368620 50 29.647-02 34 15.56               VEN012L02
     K24M01X KB2024 06 30.98771420 50 36.82 -02 35 26.6          19.5 GXEN012I93
     K24M01X KB2024 06 30.99159520 50 37.87 -02 35 38.4          19.6 GXEN012I93
     K24M01X KB2024 06 30.99529620 50 38.82 -02 35 48.5          19.5 GXEN012I93
     K24M01X |C2024 07 01.24416020 51 47.900-02 46 42.30         19.4 GVEN012807
     K24M01X |C2024 07 01.24636020 51 48.480-02 46 48.80         19.5 GVEN012807
     K24M01X |C2024 07 01.24856020 51 49.070-02 46 54.50         19.5 GVEN012807
     K24M01X KC2024 07 01.30633520 52 05.01 -02 50 34.6          19.8 GVEN012H21
     K24M01X KC2024 07 01.30918220 52 05.76 -02 50 42.6          19.8 GVEN012H21
     K24M01X |C2024 07 02.39529620 57 09.200-03 42 42.20         19.5 GVEN012807
     K24M01X |C2024 07 02.39749020 57 09.800-03 42 48.80         19.3 GVEN012807
     K24M01X |C2024 07 02.39985420 57 10.400-03 42 55.70         19.5 GVEN012807
Observer details:
807 Cerro Tololo Observatory, La Serena.  Observers T. Linder, R. Holmes.
    0.61-m f/6.8 Ritchey-Chretien + CCD.
E94 Possum Observatory, Gisborne.  Observer J. Drummond.  0.41-m f/4.5
    reflector + CCD.
F51 Pan-STARRS 1, Haleakala.  Observers J. Herman, T. Lowe, P. Minguez, A.
    Schultz, I. Smith.  Measurers K. Chambers, T. de Boer, J. Fairlamb, H.
    Gao, M. Huber, C.-C. Lin, E. Magnier, Y. Ramanjooloo, R. Wainscoat, R.
    Weryk.  1.8-m Ritchey-Chretien + CCD.
H21 Astronomical Research Observatory, Westfield.  Observer R. Holmes.
    Measurers T. Linder, R. Holmes, L. Horn.  0.76-m f/3.0 astrograph + CCD,
    0.81-m f/4.0 astrograph + CCD.
H36 Sandlot Observatory, Scranton.  Observer G. Hug.  0.56-m f/4.25 reflector
    + CMO.
I93 St Pardon de Conques.  Observer F. Losse.  0.40-m f/3.7 reflector + CMO.
L01 Visnjan Observatory, Tican.  Observer K. Korlevic.  1.0-m f/2.9 reflector
    + CCD.
L02 NOAK Observatory, Stavraki.  Observer N. Sioulas.  0.25-m f/4.7 reflector
    + CCD.
M45 Starhopper Observatory, Sfantu Gheorghe.  Observer F. Ursache.  0.41-m
    f/7.5 reflector + CMO.
M49 IAS Remote Observatory, Hakos.  Observers D. Husar, M. Junius, L. Demetz,
    P. Ditz, R. Hellot, T. Steinbach, A. Karacali, T. Daiber.  Measurer D.
    Husar.  0.25-m f/4.5 reflector + CMO.
X09 Deep Random Survey, Rio Hurtado.  Observers A. Schnabel, D. Ruhela.
    Measurer S. Deen.  0.43-m reflector + CMOS.
Orbital elements:
2024 MX1                                                 Earth MOID = 0.1472 AU
Epoch 2024 Mar. 31.0 TT = JDT 2460400.5                 Veres                   
M 328.70494              (2000.0)            P               Q                  
n   0.30798081     Peri.  177.84511     +0.39534994     +0.90011594             
a   2.1716355      Node   115.39877     -0.84573635     +0.43445223             
e   0.4642918      Incl.   11.68803     -0.35836916     -0.03228866             
P   3.20           H   21.67          G   0.15           U   8                  
Residuals in seconds of arc
240629 F51  0.0   0.0     240630 E94  0.2-  0.9-    240630 L02  1.0-  0.1+
240629 F51  0.0   0.0     240630 E94  0.4+  0.1-    240630 L02  2.0-  0.4+
240629 F51  0.1-  0.0     240630 M49  0.0   0.1+    240630 I93  0.1-  0.4+
240630 X09  0.2+  0.3+    240630 M49  0.1+  0.1+    240630 I93  0.0   0.4-
240630 X09  0.1+  0.3-    240630 M45  0.4+  0.0     240630 I93  0.6-  0.1+
240630 X09  0.0   0.1-    240630 L01  0.4-  0.5-    240701 807  0.1-  0.2-
240630 H36  0.1+  0.4+    240630 M49  0.1+  0.0     240701 807  0.1-  0.4-
240630 H36  0.8-  0.1-    240630 L01  0.2-  0.3-    240701 807  0.0   0.2+
240630 H21  0.1-  0.3+    240630 M45  0.5+  0.7-    240701 H21  0.0   0.1-
240630 H21  0.3+  0.5+    240630 L01  0.2+  0.4-    240701 H21  0.0   0.1+
240630 H21  0.2+  0.2-    240630 L01  0.2-  0.6+    240702 807  0.1+  0.1-
240630 H21  0.1+  0.1-    240630 L01  0.1-  0.2+    240702 807  0.2+  0.2-
240630 E94  0.1+  0.2-    240630 L02  1.1+  0.3-    240702 807  0.3-  0.1-
Ephemeris:
2024 MX1                 a,e,i = 2.17, 0.46, 12                  q = 1.1634
Date    TT    R. A. (2000) Decl.     Delta      r    Elong.  Phase     V
2024 06 02    19 01 32.4 +08 40 55   0.2935  1.2351   133.6    36.5    20.9
...
2024 06 17    19 51 07.5 +05 36 39   0.2251  1.1911   137.3    35.4    20.3
...
2024 06 25    20 23 37.4 +01 38 06   0.1985  1.1756   140.1    33.7    19.9
...
2024 07 01    20 50 38.6 -02 35 25   0.1842  1.1680   142.4    32.1    19.7
2024 07 02    20 55 19.2 -03 23 34   0.1823  1.1671   142.8    31.8    19.7
2024 07 03    21 00 01.9 -04 13 15   0.1806  1.1663   143.2    31.5    19.6
...
2024 07 09    21 28 48.9 -09 37 21   0.1736  1.1635   145.2    29.9    19.5
...
2024 07 17    22 06 46.3 -17 18 42   0.1738  1.1654   146.6    28.7    19.5
...
2024 08 01    23 05 43.3 -29 27 08   0.1999  1.1861   146.1    28.5    19.8
M. P. C. Staff               (C) Copyright 2024 MPC           M.P.E.C. 2024-N12
    
    
More information about the Iaude
mailing list